EW7486 Weather Reports


Display with metric or nautical units.
time (UTC)temp
F
wind
direction
speed
MPH
gust
MPH
rain 1hr
in
rain 24hr
in
rain mn
in
humidity
%
barometer
mb
20260906074524 72 244 0.0 0.0 0.00 0.00 0.00 88 1008.2
20260906073039 72 244 0.0 0.0 0.00 0.00 0.00 89 1008.2
20260906071522 72 244 0.0 0.0 0.00 0.00 0.00 90 1008.2
20260906070034 72 244 0.0 0.0 0.00 0.00 0.00 89 1008.4
20260906064521 72 244 0.0 0.0 0.00 0.00 0.00 89 1008.2
20260906063021 73 244 0.0 0.0 0.00 0.00 0.00 88 1008.4
20260906061517 73 244 0.0 0.0 0.00 0.00 0.00 87 1008.7
20260906060015 73 244 0.0 0.0 0.00 0.00 0.00 87 1008.9
20260906054520 73 244 0.0 0.0 0.00 0.00 0.00 87 1009.1
20260906053012 73 244 0.0 0.0 0.00 0.00 0.00 87 1009.4
20260906051519 74 244 0.0 0.0 0.00 0.00 0.00 88 1009.4
20260906050010 74 244 0.0 2.0 0.00 0.00 0.00 88 1009.7
20260906044509 74 244 0.0 0.0 0.00 0.00 0.00 87 1009.5
20260906043007 74 244 0.0 0.0 0.00 0.00 0.00 86 1009.6
20260906041505 74 244 0.0 0.0 0.00 0.00 0.00 86 1009.7
20260906040004 74 244 0.0 0.0 0.00 0.00 0.00 85 1009.6
20260906034502 75 244 0.0 1.0 0.00 0.00 0.00 85 1009.7
20260906033002 75 244 0.0 0.0 0.00 0.00 0.00 84 1009.7
20260906031500 75 244 0.0 0.0 0.00 0.00 0.00 83 1009.6
20260906030108 75 244 0.0 0.0 0.00 0.00 0.00 82 1009.7
20260906024600 76 244 0.0 0.0 0.00 0.00 0.00 82 1009.2
20260906023128 76 244 0.0 2.0 0.00 0.00 0.00 82 1009.3
20260906021515 76 244 0.0 0.0 0.00 0.00 0.00 82 1009.7
20260906020057 76 300 0.0 0.0 0.00 0.00 0.00 82 1009.6
20260906014543 76 300 0.0 0.0 0.00 0.00 0.00 81 1009.1
20260906013012 76 300 0.0 0.0 0.00 0.00 0.00 81 1009.1
20260906011526 76 300 0.0 0.0 0.00 0.00 0.00 80 1009.0
20260906010106 77 300 0.0 0.0 0.00 0.00 0.00 79 1008.8
20260906003135 77 300 0.0 0.0 0.00 0.00 0.00 77 1008.2
20260906001602 78 300 0.0 2.0 0.00 0.00 0.00 75 1008.2
20260906000136 78 300 0.0 2.0 0.00 0.00 0.00 75 1008.3
20260905234507 79 300 0.0 0.0 0.00 0.00 0.00 74 1008.2
20260905231525 79 300 0.0 0.0 0.00 0.00 0.00 72 1008.3
20260905230025 79 300 0.0 0.0 0.00 0.00 0.00 72 1008.2
20260905224529 79 300 0.0 2.0 0.00 0.00 0.00 72 1007.9
20260905223032 80 300 0.0 2.0 0.00 0.00 0.00 70 1008.1
20260905221522 80 300 0.0 2.0 0.00 0.00 0.00 70 1008.2
20260905220021 80 300 0.0 2.0 0.00 0.00 0.00 70 1008.2
20260905214521 80 300 0.0 2.0 0.00 0.00 0.00 69 1008.2
20260905213020 81 300 0.0 2.0 0.00 0.00 0.00 68 1008.6
20260905211523 81 248 0.0 2.0 0.00 0.00 0.00 70 1008.8
20260905210104 82 325 0.0 2.0 0.00 0.00 0.00 69 1008.8
20260905204514 82 281 0.0 1.0 0.00 0.00 0.00 67 1008.7
20260905203100 82 281 0.0 2.0 0.00 0.00 0.00 64 1008.7
20260905201625 82 281 0.0 2.0 0.00 0.00 0.00 63 1008.6
20260905200111 83 281 0.0 2.0 0.00 0.00 0.00 61 1009.0
20260905194512 84 311 0.0 4.0 0.00 0.00 0.00 58 1009.6
20260905193011 85 9 0.0 5.0 0.00 0.00 0.00 56 1009.7
20260905191512 88 23 1.0 5.0 0.00 0.00 0.00 53 1009.2
20260905190026 93 319 0.0 9.0 0.00 0.00 0.00 47 1009.3
20260905184555 96 232 0.0 2.0 0.00 0.00 0.00 45 1008.2
20260905183016 97 145 0.0 2.0 0.00 0.00 0.00 42 1008.5
20260905181551 96 223 0.0 2.0 0.00 0.00 0.00 46 1008.2
20260905180008 95 199 0.0 2.0 0.00 0.00 0.00 47 1008.9
20260905174506 95 198 0.0 2.0 0.00 0.00 0.00 49 1008.9
20260905173105 94 135 0.0 2.0 0.00 0.00 0.00 50 1008.9
20260905171502 94 211 0.0 4.0 0.00 0.00 0.00 51 1009.0
20260905170057 93 213 0.0 2.0 0.00 0.00 0.00 54 1009.2
20260905164600 91 211 0.0 2.0 0.00 0.00 0.00 54 1009.7
20260905163049 90 175 0.0 2.0 0.00 0.00 0.00 57 1009.9
20260905161546 89 209 0.0 2.0 0.00 0.00 0.00 62 1010.2
20260905160042 88 207 0.0 2.0 0.00 0.00 0.00 65 1010.1
20260905154538 87 237 0.0 2.0 0.00 0.00 0.00 66 1010.3
20260905153051 86 238 0.0 2.0 0.00 0.00 0.00 68 1010.5
20260905151531 85 167 0.0 2.0 0.00 0.00 0.00 70 1010.6
20260905150027 83 272 0.0 2.0 0.00 0.00 0.00 72 1010.6
20260905144525 82 272 0.0 2.0 0.00 0.00 0.00 73 1010.5
20260905143024 81 272 0.0 2.0 0.00 0.00 0.00 76 1010.6
20260905141540 80 286 0.0 1.0 0.00 0.00 0.00 78 1010.7
20260905140041 79 286 0.0 0.0 0.00 0.00 0.00 81 1011.0
20260905134541 78 286 0.0 0.0 0.00 0.00 0.00 84 1011.1
20260905133038 77 292 0.0 0.0 0.00 0.00 0.00 84 1011.3
20260905131553 77 292 0.0 2.0 0.00 0.00 0.00 84 1011.1
20260905130041 76 292 0.0 1.0 0.00 0.00 0.00 87 1011.0
20260905124534 75 292 0.0 2.0 0.00 0.00 0.00 88 1010.9
20260905123035 75 292 0.0 0.0 0.00 0.00 0.00 89 1010.9
20260905121536 75 292 0.0 0.0 0.00 0.00 0.00 91 1010.9
20260905120033 75 292 0.0 0.0 0.00 0.00 0.00 90 1010.6
20260905114531 75 292 0.0 0.0 0.00 0.00 0.00 89 1010.5
20260905113029 75 292 0.0 0.0 0.00 0.00 0.00 88 1010.4
20260905111548 75 292 0.0 0.0 0.00 0.00 0.00 88 1010.3
20260905110028 75 292 0.0 0.0 0.00 0.00 0.00 88 1010.1
20260905104526 75 292 0.0 0.0 0.00 0.00 0.00 88 1010.0
20260905103028 75 292 0.0 0.0 0.00 0.00 0.00 87 1010.0
20260905101523 75 292 0.0 1.0 0.00 0.00 0.00 88 1009.9
20260905100024 76 292 0.0 1.0 0.00 0.00 0.00 89 1009.9
20260905094522 76 292 0.0 0.0 0.00 0.00 0.00 89 1009.9
20260905093021 76 292 0.0 0.0 0.00 0.00 0.00 90 1009.9
20260905091520 76 292 0.0 0.0 0.00 0.00 0.00 90 1009.9
20260905090019 76 292 0.0 0.0 0.00 0.00 0.00 89 1009.9
20260905084522 76 292 0.0 0.0 0.00 0.00 0.00 89 1009.9
20260905083016 76 292 0.0 0.0 0.00 0.00 0.00 87 1009.9
20260905081515 76 292 0.0 0.0 0.00 0.00 0.00 86 1010.1
20260905080014 77 292 0.0 0.0 0.00 0.00 0.00 84 1010.3